Location: Hurecourt
(47.9030°N, 6.0653°E)
Time: 08:50:48
(UTC+00:00)

IRS-1D - Pass Details

Date: 14 July 2020
Orbit: 739 x 817 km, 98.6° (Epoch: 15 August)

Event Time Altitude Azimuth Distance (km) Brightness Sun altitude
Rises 02:18:10 0° 11° (N) 3,199 8.0 -12.1°
Reaches altitude 10° 02:20:29 10° 8° (N) 2,266 7.0 -11.9°
Maximum altitude 02:25:23 63° 289° (WNW) 829 3.6 -11.4°
Enters shadow 02:29:30 14° 211° (SSW) 1,955 5.0 -11.0°
